Melbourne Airport, Australia

7:45 AM AEST on June 25, 2018 (GMT +1000)
Melbourne International

Weather History for YMML - October, 2017

Change the Weather History Date:

Thursday, October 12, 2017

  Actual Average Record
Temperature  
Mean Temperature 54 °F -  
Max Temperature 64 °F 66 °F 96 °F (2006)
Min Temperature 44 °F 46 °F 42 °F (1998)
Degree Days  
Heating Degree Days 11    
Growing Degree Days 4 (Base 50)    
Moisture  
Dew Point 41 °F    
Average Humidity 56    
Maximum Humidity 88    
Minimum Humidity 25    
Precipitation  
Precipitation 0.00 in 0.08 in - ()
Sea Level Pressure  
Sea Level Pressure 29.92 in    
Wind  
Wind Speed 12 mph ()    
Max Wind Speed 22 mph    
Max Gust Speed 31 mph    
Visibility 9.0 miles    
Events Rain    
Averages and records for this station are not official NWS values.
T = Trace of Precipitation, MM = Missing Value Source: Averaged Metar Reports

Daily Weather History Graph

Daily Weather History Graph

Search for Another Location

Airport or City:

Astronomy

Oct. 12, 2017 Rise Set
Actual Time 6:40 AM AEDT 7:34 PM AEDT
Civil Twilight 6:13 AM AEDT 8:01 PM AEDT
Nautical Twilight 5:41 AM AEDT 8:33 PM AEDT
Astronomical Twilight 5:09 AM AEDT 9:06 PM AEDT
Moon 1:30 AM AEDT (10/12) 11:45 AM AEDT (10/12)
Length of Visible Light 13h 47m
Length of Day
12h 54m
Waning Gibbous, 56% of the Moon is Illuminated
Oct 12
Waning Gibbous
Oct 12
Last Quarter
Oct 20
New
Oct 28
First Quarter
Nov 4
Full

Hourly Weather History & Observations

Time (AEDT) Temp. Windchill Dew Point Humidity Pressure Visibility Wind Dir Wind Speed Gust Speed Precip Events Conditions
12:00 AM 55 °F - 50 °F 77% 29.73 in 16 mi WSW 18.4 mph - - Rain Light Rain
12:00 AM 55.4 °F - 50.0 °F 82% 29.71 in 6.2 mi WSW 18.4 mph - N/A   Mostly Cloudy
12:30 AM 53.6 °F - 50.0 °F 88% 29.74 in 6.2 mi WSW 12.7 mph - N/A   Mostly Cloudy
1:00 AM 54 °F - 48 °F 74% 29.77 in - SW 10.4 mph - -  
1:00 AM 53.6 °F - 48.2 °F 82% 29.77 in 6.2 mi SW 10.4 mph - N/A   Mostly Cloudy
1:30 AM 53.6 °F - 48.2 °F 82% 29.77 in 6.2 mi WSW 9.2 mph - N/A   Mostly Cloudy
2:00 AM 53 °F - 46 °F 70% 29.80 in - WSW 10.4 mph - -  
2:30 AM 51.8 °F - 44.6 °F 76% 29.80 in 6.2 mi West 13.8 mph - N/A   Mostly Cloudy
3:00 AM 51 °F - 43 °F 66% 29.81 in 19 mi West 13.8 mph - -   Partly Cloudy
3:00 AM 51.8 °F - 42.8 °F 71% 29.80 in - West 13.8 mph - N/A   Clear
3:30 AM 50.0 °F - 42.8 °F 76% 29.80 in - West 10.4 mph - N/A   Clear
4:00 AM 48 °F - 42 °F 72% 29.83 in - West 8.1 mph - -  
4:00 AM 48.2 °F - 41.0 °F 76% 29.83 in - West 8.1 mph - N/A   Clear
4:30 AM 48.2 °F - 42.8 °F 82% 29.83 in 6.2 mi West 9.2 mph - N/A   Partly Cloudy
5:00 AM 46 °F - 41 °F 77% 29.86 in - West 8.1 mph - -  
5:00 AM 46.4 °F 42.4 °F 41.0 °F 81% 29.86 in - West 8.1 mph - N/A   Clear
5:30 AM 46.4 °F 42.9 °F 41.0 °F 81% 29.86 in 6.2 mi NNW 6.9 mph - N/A   Partly Cloudy
6:00 AM 47 °F - 41 °F 73% 29.87 in 19 mi North 8.1 mph - -   Partly Cloudy
6:00 AM 48.2 °F - 41.0 °F 76% 29.86 in - North 8.1 mph - N/A   Clear
6:30 AM 46.4 °F 42.4 °F 41.0 °F 81% 29.89 in 6.2 mi NW 8.1 mph - N/A   Scattered Clouds
7:00 AM 49 °F - 41 °F 66% 29.91 in - NNW 9.2 mph - -  
7:00 AM 50.0 °F - 41.0 °F 71% 29.89 in 6.2 mi NNW 9.2 mph - N/A   Mostly Cloudy
7:30 AM 48.2 °F - 41.0 °F 76% 29.92 in 6.2 mi North 10.4 mph - N/A   Mostly Cloudy
8:00 AM 50 °F - 42 °F 65% 29.93 in - NNW 9.2 mph - -  
8:00 AM 50.0 °F - 41.0 °F 71% 29.92 in 6.2 mi NNW 9.2 mph - N/A   Mostly Cloudy
8:30 AM 51.8 °F - 42.8 °F 71% 29.92 in 6.2 mi NNW 8.1 mph - N/A   Partly Cloudy
9:00 AM 55 °F - 42 °F 52% 29.94 in 16 mi West 15.0 mph - -   Partly Cloudy
9:00 AM 55.4 °F - 42.8 °F 63% 29.95 in 6.2 mi West 15.0 mph - N/A   Partly Cloudy
10:00 AM 56 °F - 40 °F 43% 29.97 in - West 12.7 mph - -  
10:00 AM 55.4 °F - 39.2 °F 54% 29.95 in 6.2 mi West 12.7 mph - N/A   Mostly Cloudy
10:30 AM 57.2 °F - 39.2 °F 51% 29.98 in 6.2 mi West 18.4 mph - N/A   Mostly Cloudy
11:00 AM 58 °F - 39 °F 38% 29.98 in - West 16.1 mph - -  
11:00 AM 57.2 °F - 39.2 °F 51% 29.98 in 6.2 mi West 16.1 mph - N/A   Mostly Cloudy
11:30 AM 60.8 °F - 37.4 °F 42% 29.98 in 6.2 mi West 16.1 mph - N/A   Mostly Cloudy
12:00 PM 60 °F - 36 °F 30% 29.98 in 19 mi West 21.9 mph - -   Partly Cloudy
12:00 PM 60.8 °F - 37.4 °F 42% 29.98 in 6.2 mi West 21.9 mph - N/A   Mostly Cloudy
12:30 PM 60.8 °F - 35.6 °F 39% 29.98 in 6.2 mi West 18.4 mph 31.1 mph N/A   Scattered Clouds
1:00 PM 61 °F - 36 °F 27% 29.97 in - West 20.7 mph - -  
1:00 PM 60.8 °F - 35.6 °F 39% 29.95 in 6.2 mi West 20.7 mph - N/A   Scattered Clouds
1:30 PM 60.8 °F - 35.6 °F 39% 29.95 in 6.2 mi West 20.7 mph - N/A   Scattered Clouds
2:00 PM 64 °F - 37 °F 25% 29.97 in - West 16.1 mph - -  
2:00 PM 64.4 °F - 37.4 °F 37% 29.95 in - West 16.1 mph - N/A   Clear
2:30 PM 62.6 °F - 35.6 °F 37% 29.95 in - WNW 17.3 mph - N/A   Clear
3:00 PM 63 °F - 37 °F 26% 29.97 in 19 mi West 15.0 mph - -   Partly Cloudy
3:00 PM 62.6 °F - 37.4 °F 39% 29.95 in - West 15.0 mph - N/A   Clear
4:00 PM 63 °F - 40 °F 30% 29.97 in - West 13.8 mph - -  
4:00 PM 62.6 °F - 39.2 °F 42% 29.95 in - West 13.8 mph - N/A   Clear
4:30 PM 62.6 °F - 37.4 °F 39% 29.95 in - West 13.8 mph - N/A   Clear
5:00 PM 64 °F - 39 °F 29% 29.96 in - WNW 10.4 mph - -  
5:00 PM 64.4 °F - 39.2 °F 40% 29.95 in - WNW 10.4 mph - N/A   Clear
5:30 PM 64.4 °F - 37.4 °F 37% 29.95 in - West 15.0 mph - N/A   Clear
6:00 PM 62 °F - 39 °F 30% 29.97 in 19 mi West 11.5 mph - -   Partly Cloudy
6:00 PM 62.6 °F - 39.2 °F 42% 29.95 in - West 11.5 mph - N/A   Clear
6:30 PM 62.6 °F - 39.2 °F 42% 29.98 in - WNW 10.4 mph - N/A   Clear
7:00 PM 60.8 °F - 39.2 °F 45% 29.98 in - West 12.7 mph - N/A   Clear
8:00 PM 60 °F - 41 °F 37% 30.01 in - West 13.8 mph - -  
8:00 PM 60.8 °F - 41.0 °F 48% 30.01 in - West 13.8 mph - N/A   Clear
8:30 PM 59.0 °F - 42.8 °F 55% 30.01 in 6.2 mi West 11.5 mph - N/A   Mostly Cloudy
9:00 PM 58 °F - 42 °F 45% 30.03 in 16 mi West 11.5 mph - -   Partly Cloudy
9:00 PM 59.0 °F - 42.8 °F 55% 30.01 in 6.2 mi West 11.5 mph - N/A   Mostly Cloudy
9:30 PM 57.2 °F - 42.8 °F 59% 30.04 in 6.2 mi NW 6.9 mph - N/A   Mostly Cloudy
10:00 PM 57 °F - 41 °F 44% 30.04 in - NW 10.4 mph - -  
10:00 PM 57.2 °F - 41.0 °F 55% 30.04 in - NW 10.4 mph - N/A   Clear
10:30 PM 57.2 °F - 42.8 °F 59% 30.04 in - WNW 11.5 mph - N/A   Clear
11:00 PM 56 °F - 42 °F 49% 30.04 in - WNW 8.1 mph - -  
11:00 PM 57.2 °F - 42.8 °F 59% 30.04 in 6.2 mi WNW 8.1 mph - N/A   Scattered Clouds